[[{"header":{"parameterUnit":"m.s-1","parameterCategory":1,"la1":30.2991,"la2":30.254,"lo1":-89.0895,"lo2":-89.0444,"dy":0.0017,"dx":0.0017,"nx":28,"ny":28,"refTime":"2025-07-28T09:00:00:Z","depth":0,"parameterNumber":2,"parameterNumberName":"U-component_of_WINDS"},"data":[0,0,0,0,0,0,0,0,0,0,0,0,0,0,0,0,0,0,0,0,0,0,0,0,0,0,0,0,0,0,0,0,0,0,0,0,0,0,0,0,0,0,0,0,0,0,0,0,0,0,0,0,0,0,0,0,0,0,2.1851,2.1851,0,2.1894,2.1894,2.1895,2.1819,2.1817,2.1814,2.1812,2.1858,2.1862,2.1865,0,0,0,0,0,0,0,0,0,0,0,0,0,2.1707,2.171,2.1851,2.1851,2.1852,2.1894,2.1894,2.1895,2.182,2.1817,2.1814,2.1811,2.1857,2.1861,2.1865,0,0,0,0,0,0,0,0,0,0,0,0,0,2.1762,2.1711,2.1851,2.1819,2.1817,2.1894,2.1894,2.1895,2.182,2.1817,2.1813,2.1809,2.1855,2.1861,2.1866,2.1976,0,0,2.1883,2.1885,0,0,0,0,0,0,0,0,2.1759,2.1767,2.1823,2.1822,2.1819,2.1847,2.186,2.1922,2.1821,2.1819,2.1812,2.1807,2.1858,2.1863,2.1879,2.1978,2.198,2.1883,2.1886,2.1889,2.189,0,0,0,0,0,0,0,2.1755,2.1765,2.1868,2.1824,2.1822,2.1804,2.1808,2.1872,2.1859,2.1819,2.1814,2.182,2.1856,2.1874,2.188,2.1981,2.1883,2.1888,2.1891,2.1893,2.2174,2.2178,0,0,0,0,0,0,2.1755,2.1762,2.1866,2.1869,2.1779,2.181,2.1814,2.1842,2.1858,2.1857,2.1823,2.1816,2.1867,2.1873,2.1881,2.2011,2.1889,2.1894,2.1897,2.217,2.2175,2.218,0,0,0,0,0,0,2.1752,2.1765,2.1865,2.1814,2.1825,2.1816,2.1849,2.1845,2.1863,2.1861,2.1859,2.1844,2.1864,2.1873,2.1953,2.2012,2.1896,2.1901,2.2165,2.2172,2.2178,2.2273,0,0,0,0,0,0,2.1748,2.1764,2.1804,2.1816,2.1828,2.1935,2.1852,2.1849,2.1872,2.1864,2.188,2.1879,2.1862,2.1946,2.1959,2.2017,2.1905,2.216,2.2168,2.2176,2.2264,2.2282,2.2297,0,0,0,0,0,2.1743,2.183,2.1807,2.182,2.1879,2.1938,2.1946,2.1923,2.1877,2.1919,2.1918,2.1879,2.2004,2.1954,2.1968,2.203,2.2156,2.2166,2.2175,2.2257,2.2278,2.2296,0,0,0,0,0,0,2.1825,2.183,2.1805,2.1898,2.1918,2.1926,2.1977,2.1946,2.198,2.1971,2.1942,2.1947,2.2033,2.2039,2.1984,2.2138,2.2072,2.2085,2.213,2.215,2.2166,2.2162,2.191,0,0,0,0,0,2.1854,2.1902,2.1904,2.1985,2.1997,2.1986,2.2011,2.1992,2.2012,2.2021,2.2025,2.2048,2.2092,2.2122,2.2162,2.2266,2.2269,2.2315,2.2331,2.2345,2.2356,2.2412,2.2433,2.2211,2.2211,2.2211,0,0,2.1914,2.1923,2.1955,2.2002,2.2016,2.2067,2.1993,2.2049,2.2087,2.2029,2.2104,2.211,2.2133,2.2225,2.2266,2.2233,2.2418,2.2357,2.2367,2.2371,2.2424,2.2445,2.2464,2.2218,2.2216,2.2215,0,0,2.205,2.2061,2.213,2.2146,2.2168,2.2161,2.2178,2.2191,2.2192,2.2267,2.2225,2.2271,2.2347,2.2366,2.2385,2.2532,2.2497,2.2546,2.2629,2.2685,2.2702,2.2718,2.277,2.2789,2.2557,2.2558,2.2558,0,2.2121,2.2195,2.217,2.223,2.2253,2.2204,2.2275,2.2292,2.2326,2.2344,2.2307,2.2403,2.2415,2.2512,2.2548,2.2566,2.2585,2.2543,2.2702,2.2717,2.2731,2.2781,2.2801,2.2563,2.2563,2.2562,2.2561,0,2.2283,2.2335,2.2389,2.2424,2.2453,2.2518,2.2505,2.2538,2.2518,2.2515,2.2593,2.2607,2.265,2.2672,2.2652,2.2767,2.2746,2.2706,2.2639,2.2758,2.2805,2.2823,2.2571,2.2569,2.2568,2.2566,0,0,2.2468,2.249,2.251,2.2526,2.2549,2.2589,2.2654,2.2696,2.2725,2.2752,2.2806,2.2873,2.2837,2.286,2.2842,2.2892,2.3008,2.2846,2.2846,2.2875,2.3136,2.3165,2.3187,2.2986,2.299,2.2992,2.3134,0,2.2602,2.2712,2.2693,2.28,2.2849,2.2805,2.2861,2.2882,2.2882,2.2924,2.2925,2.2973,2.2921,2.2935,2.2982,2.2984,2.306,2.2973,2.3036,2.3039,2.3031,2.3211,2.3242,2.3375,2.3152,2.3155,2.3157,0,2.2772,2.2805,2.2918,2.2934,2.2954,2.3005,2.3043,2.3084,2.3108,2.3105,2.3132,2.3106,2.3172,2.3106,2.3198,2.3139,2.3165,2.317,2.3175,2.3179,2.3104,2.322,2.3416,2.3436,2.3185,2.3183,2.3181,0,2.2895,2.2969,2.3046,2.3061,2.3083,2.312,2.3131,2.3151,2.3178,2.3212,2.323,2.3272,2.3295,2.3329,2.3317,2.3269,2.3411,2.3343,2.3411,2.3411,2.3441,2.3439,2.3643,2.3459,2.3459,2.3459,2.3458,0,2.3046,2.3117,2.3102,2.3149,2.3227,2.3207,2.3285,2.3291,2.331,2.3358,2.3324,2.337,2.3352,2.3398,2.3389,2.3466,2.3477,2.3477,2.3474,2.3479,2.3479,2.3494,2.3484,2.3464,2.3463,2.3462,2.3461,0,2.3196,2.3189,2.327,2.3285,2.329,2.3348,2.3361,2.3406,2.3405,2.3467,2.348,2.3478,2.3531,2.3523,2.3581,2.3575,2.3672,2.3658,2.3664,2.366,2.3728,2.3721,2.3948,2.3977,2.3775,2.3777,2.3779,0,2.3292,2.3345,2.3366,2.3397,2.341,2.3459,2.3488,2.3471,2.3502,2.3535,2.3577,2.3626,2.3665,2.3752,2.3756,2.3801,2.3787,2.3864,2.3794,2.3799,2.3788,2.3785,2.379,2.3877,2.388,2.3881,2.3883,0,2.3463,2.3457,2.3499,2.3541,2.3576,2.3608,2.3637,2.3664,2.365,2.3687,2.374,2.3771,2.3831,2.3882,2.3925,2.3937,2.3909,2.3906,2.3923,2.3929,2.393,2.393,2.37,2.39,2.3898,2.3897,2.3896,2.3895,2.3588,2.3634,2.3657,2.3705,2.3726,2.3754,2.3798,2.3803,2.3847,2.3894,2.3883,2.3944,2.3969,2.4024,2.4042,2.409,2.4062,2.4088,2.4094,2.4101,2.4109,2.3924,2.4098,2.4098,2.4097,2.4097,2.4096,0,2.3756,2.377,2.3815,2.3857,2.3896,2.3867,2.3898,2.3932,2.3986,2.4012,2.4052,2.4115,2.4164,2.4174,2.4222,2.4259,2.4247,2.4272,2.4268,2.4272,2.4131,2.4111,2.4281,2.4281,2.4281,2.4281,2.4281,2.428,2.3848,2.3925,2.3923,2.401,2.4024,2.4083,2.4103,2.413,2.4151,2.4223,2.4264,2.427,2.429,2.434,2.4385,2.4386,2.4405,2.4435,2.4432,2.43,2.4281,2.4264,2.4244,2.444,2.444,2.4568,2.457,2.4571]},{"header":{"parameterUnit":"m.s-1","parameterCategory":1,"la1":30.2991,"la2":30.254,"lo1":-89.0895,"lo2":-89.0444,"dy":0.0017,"dx":0.0017,"nx":28,"ny":28,"refTime":"2025-07-28T09:00:00:Z","depth":0,"parameterNumber":3,"parameterNumberName":"V-component_of_WINDS"},"data":[0,0,0,0,0,0,0,0,0,0,0,0,0,0,0,0,0,0,0,0,0,0,0,0,0,0,0,0,0,0,0,0,0,0,0,0,0,0,0,0,0,0,0,0,0,0,0,0,0,0,0,0,0,0,0,0,0,0,2.0577,2.0577,0,2.0515,2.0515,2.0514,2.0453,2.0452,2.0452,2.0451,2.0384,2.0383,2.0382,0,0,0,0,0,0,0,0,0,0,0,0,0,2.064,2.0639,2.0577,2.0577,2.0576,2.0515,2.0514,2.0514,2.0453,2.0452,2.0451,2.0451,2.0384,2.0383,2.0382,0,0,0,0,0,0,0,0,0,0,0,0,0,2.0599,2.0639,2.0578,2.0539,2.0534,2.0516,2.0514,2.0513,2.0454,2.0452,2.0451,2.045,2.0385,2.0383,2.0382,2.0395,0,0,2.0377,2.0376,0,0,0,0,0,0,0,0,2.0601,2.0596,2.0545,2.0541,2.0537,2.0491,2.0512,2.0474,2.0454,2.0484,2.0451,2.045,2.042,2.0416,2.0406,2.0392,2.0389,2.0377,2.0376,2.0375,2.0374,0,0,0,0,0,0,0,2.0604,2.0599,2.0553,2.0544,2.0539,2.0523,2.0516,2.0504,2.0459,2.0481,2.0477,2.0471,2.0418,2.0408,2.0404,2.0388,2.0377,2.0375,2.0374,2.0374,2.0378,2.0379,0,0,0,0,0,0,2.0613,2.0602,2.0555,2.0551,2.0567,2.0523,2.0515,2.0507,2.0459,2.0451,2.0472,2.0468,2.0411,2.0406,2.0402,2.0412,2.0375,2.0373,2.0373,2.0377,2.0378,2.038,0,0,0,0,0,0,2.0615,2.061,2.0557,2.0575,2.0567,2.0523,2.0514,2.0506,2.0496,2.0452,2.0443,2.047,2.041,2.0404,2.0397,2.0409,2.0373,2.0371,2.0376,2.0378,2.0379,2.0435,0,0,0,0,0,0,2.0617,2.0611,2.0616,2.0576,2.0566,2.0555,2.0515,2.0506,2.0494,2.0489,2.0449,2.0441,2.0409,2.0399,2.0395,2.0406,2.037,2.0375,2.0377,2.0379,2.0432,2.0438,2.0444,0,0,0,0,0,2.0619,2.0634,2.0617,2.0612,2.0573,2.0556,2.055,2.0514,2.0496,2.05,2.0471,2.0442,2.0409,2.0399,2.0394,2.0405,2.0374,2.0376,2.0378,2.0429,2.0437,2.0444,0,0,0,0,0,0,2.0677,2.0628,2.0609,2.0611,2.0588,2.0545,2.055,2.0524,2.0505,2.0501,2.0456,2.0447,2.0444,2.0424,2.0414,2.0414,2.0387,2.0388,2.0427,2.0434,2.044,2.0444,2.0369,0,0,0,0,0,2.069,2.0682,2.0639,2.0645,2.0635,2.0595,2.0586,2.056,2.0534,2.0524,2.0494,2.0469,2.0452,2.0442,2.0425,2.0429,2.0417,2.0433,2.0439,2.0445,2.0446,2.0443,2.0449,2.0388,2.0388,2.0388,0,0,2.0717,2.0689,2.0686,2.0656,2.0635,2.0626,2.0587,2.0579,2.057,2.0522,2.0513,2.0491,2.0459,2.0457,2.0454,2.0439,2.046,2.0448,2.0452,2.045,2.0446,2.0452,2.0458,2.0389,2.0389,2.0389,0,0,2.076,2.074,2.0741,2.0721,2.069,2.0663,2.0664,2.0625,2.0609,2.0599,2.0562,2.0551,2.0524,2.0502,2.0488,2.0522,2.0493,2.0518,2.0549,2.0547,2.0552,2.0556,2.0565,2.057,2.0519,2.052,2.052,0,2.0797,2.0782,2.0745,2.0739,2.0726,2.0683,2.0683,2.0665,2.063,2.0621,2.0605,2.0569,2.0545,2.0536,2.0544,2.0535,2.0532,2.0521,2.0554,2.0558,2.0561,2.057,2.0574,2.0523,2.0522,2.0522,2.0522,0,2.0828,2.0818,2.0823,2.079,2.0778,2.0775,2.0736,2.0728,2.0703,2.0677,2.0667,2.0637,2.0611,2.0607,2.0583,2.0594,2.0585,2.0563,2.0535,2.0571,2.0578,2.0581,2.0527,2.0526,2.0525,2.0524,0,0,2.0904,2.0852,2.0854,2.0838,2.08,2.0791,2.0786,2.0762,2.0754,2.0731,2.0724,2.0702,2.068,2.0664,2.0637,2.0635,2.0661,2.0612,2.0611,2.062,2.0668,2.0684,2.0689,2.0643,2.0643,2.0644,2.067,0,2.094,2.0928,2.0895,2.0893,2.0882,2.084,2.0835,2.0811,2.0786,2.0772,2.0744,2.0729,2.0703,2.0692,2.0689,2.0659,2.067,2.0657,2.0633,2.0632,2.064,2.0693,2.071,2.0736,2.0673,2.0673,2.0674,0,2.0979,2.0959,2.0957,2.0918,2.0912,2.0909,2.0883,2.0871,2.0841,2.0823,2.0805,2.0775,2.0764,2.0739,2.0723,2.0714,2.0702,2.0686,2.0686,2.0681,2.0654,2.0687,2.0744,2.0747,2.0678,2.0678,2.0677,0,2.1033,2.1005,2.1,2.0988,2.0943,2.0941,2.0922,2.0892,2.0879,2.0856,2.0847,2.0823,2.081,2.0791,2.0754,2.074,2.074,2.0713,2.0723,2.0723,2.0723,2.0724,2.0777,2.0719,2.0719,2.0719,2.0719,0,2.1074,2.1074,2.1023,2.102,2.1017,2.0978,2.0976,2.0953,2.0926,2.0915,2.0878,2.0868,2.0821,2.0806,2.0777,2.0766,2.076,2.0744,2.0735,2.0746,2.0748,2.0736,2.0733,2.072,2.072,2.072,2.072,0,2.1133,2.11,2.109,2.1049,2.1039,2.1039,2.1002,2.0996,2.097,2.0957,2.0951,2.0909,2.0888,2.085,2.0819,2.0799,2.0793,2.0781,2.0804,2.0798,2.081,2.0808,2.0856,2.0859,2.0802,2.0802,2.0803,0,2.1161,2.1159,2.1118,2.1109,2.1092,2.1078,2.1065,2.1026,2.1014,2.0979,2.0977,2.0954,2.0933,2.0902,2.0867,2.0842,2.0827,2.0845,2.0823,2.0832,2.0824,2.0824,2.0822,2.085,2.0851,2.0852,2.0852,0,2.1213,2.1196,2.118,2.1157,2.1143,2.1123,2.1101,2.1095,2.105,2.1038,2.1017,2.1001,2.0969,2.0946,2.0916,2.0894,2.0864,2.086,2.086,2.087,2.0882,2.0873,2.0816,2.0858,2.0858,2.0857,2.0857,2.0857,2.1255,2.1251,2.1222,2.1204,2.1184,2.1164,2.1155,2.1128,2.1111,2.1082,2.106,2.1041,2.1009,2.0966,2.0945,2.0928,2.0914,2.0916,2.0915,2.0916,2.0919,2.0887,2.0922,2.0922,2.0922,2.0922,2.0921,0,2.1303,2.1282,2.1267,2.1237,2.1223,2.1199,2.1173,2.1161,2.1146,2.1119,2.11,2.1075,2.1052,2.1015,2.0988,2.0981,2.0967,2.0975,2.0974,2.0969,2.0934,2.0935,2.0987,2.0987,2.0987,2.0987,2.0987,2.0987,2.1326,2.1318,2.1298,2.1278,2.1257,2.1239,2.1226,2.1206,2.1185,2.1159,2.114,2.1117,2.1086,2.1056,2.1033,2.1022,2.1013,2.1025,2.101,2.0978,2.0972,2.0966,2.0967,2.1024,2.1024,2.1046,2.1046,2.1047]}]]